Location: ?ernice
(48.8383°N, 14.3803°E)
Time: 16:27:14
(UTC+00:00)

SJ 16-02 - Pass Details

Date: 23 May 2024
Orbit: 594 x 605 km, 75.0° (Epoch: 13 June)

Event Time Altitude Azimuth Distance (km) Brightness Sun altitude
Exits shadow 01:40:09 16° 198° (SSW) 1,584 2.9 -11.8°
Maximum altitude 01:43:35 86° 110° (ESE) 603 1.3 -11.5°
Drops below altitude 10° 01:47:55 10° 22° (NNE) 1,940 5.2 -11.0°
Sets 01:50:09 0° 22° (NNE) 2,847 6.4 -10.8°
